Location: Gesvres
(49.0440°N, 2.8518°E)
Time: 14:42:26
(UTC+00:00)

Cosmos 1844 Rocket - Visible Passes

Search period start: 13 July 2025 00:00
Search period end: 23 July 2025 00:00
Orbit: 822 x 844 km, 71.0° (Epoch: 12 July)

Date Brightness Start Highest point End Pass type
(mag) Time Alt. Az. Time Alt. Az. Time Alt. Az.
13 Jul 4.8 01:13:21 10° NNW 01:18:09 27° NE 01:22:54 10° ESE visible
13 Jul 2.7 02:56:54 10° NNW 03:02:30 66° WSW 03:08:01 10° SSE visible
14 Jul 4.8 00:55:50 10° NNW 01:00:31 26° NE 01:05:09 10° E visible
14 Jul 2.6 02:39:20 10° NNW 02:44:57 72° WSW 02:50:30 10° SSE visible
15 Jul 4.9 00:38:19 10° N 00:42:53 24° NE 00:47:23 10° E visible
15 Jul 2.6 02:21:45 10° NNW 02:27:25 78° WSW 02:32:59 10° SSE visible
16 Jul 4.9 00:20:49 10° N 00:25:14 23° NE 00:29:37 10° E visible
16 Jul 2.6 02:04:11 10° NNW 02:09:51 85° WSW 02:15:26 10° SSE visible
17 Jul 5.0 00:03:19 10° N 00:07:36 21° NE 00:11:50 10° E visible
17 Jul 2.7 01:46:37 10° NNW 01:52:17 89° ENE 01:57:53 10° SSE visible
17 Jul 5.0 23:45:50 10° N 23:49:57 20° NE 23:54:02 10° E visible
18 Jul 2.7 01:29:03 10° NNW 01:34:44 82° ENE 01:40:19 10° SSE visible
18 Jul 4.1 03:14:15 10° WNW 03:17:52 18° W 03:21:27 10° SW visible
18 Jul 5.1 23:28:21 10° N 23:32:18 19° NE 23:36:13 10° E visible
19 Jul 2.8 01:11:30 10° NNW 01:17:10 76° ENE 01:22:38 11° SSE visible
19 Jul 4.1 02:56:30 10° NW 03:00:23 19° W 03:04:11 10° SW visible
19 Jul 5.1 23:10:51 10° N 23:14:39 18° NE 23:18:24 10° E visible
20 Jul 2.9 00:53:57 10° NNW 00:59:35 70° ENE 01:04:22 14° SE visible
20 Jul 4.0 02:38:46 10° NW 02:42:53 21° W 02:45:55 14° SW visible
20 Jul 5.1 22:53:22 10° N 22:56:59 17° NE 23:00:34 10° ENE visible
21 Jul 3.0 00:36:24 10° NNW 00:42:01 65° ENE 00:46:16 17° SE visible
21 Jul 3.9 02:21:04 10° NW 02:25:23 23° WSW 02:27:50 17° SW visible
21 Jul 5.1 22:35:54 10° N 22:39:19 16° NE 22:42:43 10° ENE visible
22 Jul 3.1 00:18:51 10° NNW 00:24:26 60° ENE 00:28:18 20° SE visible
22 Jul 3.8 02:03:23 10° NW 02:07:54 25° WSW 02:09:53 21° SW visible
22 Jul 5.1 22:18:26 10° N 22:21:39 15° NNE 22:24:51 10° ENE visible
